DECAYED

STARLINK-1415, 45691 (Decayed)

Orbit data source: Space-Track

STARLINK-1415, 45691 was a payload satellite owned by SpaceX/Seattle (US) in LEO that was launched on Thu, 04 Jun 2020 UTC via an FALCON 9 launch vehicle from the Air Force Eastern Test Range (AFETR). Payload-class satellites include a variety of spacecraft equipped with specific instruments for various scientific and technological missions. These include communications satellites like Starlink; space stations such as the ISS; scientific satellites like the Hubble; Earth observation satellites from companies like Planet Labs, Umbra, and HawkEye 360; GPS; miniature CubeSats for education and research; and military/defense satellites.

Not visible in the next 10 days
Identifier
45691, 2020-035AL
Orbit
Decayed
Last TLE update
11 months ago
Origin
Manufacturer
SpaceX/Seattle
Mission
Decayed Commercial Communications
Bus & Motor
STARLINK, Unknown motor
Mass
260 kg wet, ~248 kg dry
Launch date (UTC)
2020-06-04 (5 years ago)
Launch vehicle
FALCON 9
Launch site
Air Force Eastern Test Range (AFETR)
Object type
Payload
Rocket body
Debris
Shape & HBR
Box + 1 Pan, 8.86 m
Radar Cross Section
13.562 m², Large (>1 m²)

Expand to show TLE details & history

TLE from 11 months ago
0 STARLINK-1415
1 45691U 20035AL  24223.06158267  .28350328  12304-4  32730-2 0  9995
2 45691  53.0476  65.5010 0005795 303.4245 189.2394 16.35988559232761
Epoch: 2024-08-10T01:28Z
TLE epoch observation values (Epoch: 2024-08-10T01:28:40.742Z)
Latitude
36.11881°
Longitude
-128.77359°
Altitude
183.018 km
Speed
7.799 km/s
True Right ascension
14h 09m 41s
True Declination
35° 56' 27"
Sunlit
Object was in daylight at epoch
Visualization orbit readout
Visualization observer readout
Orbital elements
Apogee altitude
180.581 km
Perigee altitude
172.983 km
Semi-major axis
6,554.919 km
Eccentricity
0.00058
Inclination
53.0476°
RAAN
65.501°
Arg. of periapsis
303.4245°
True anomaly
Unknown
Mean anomaly
189.2394°
Eccentric anomaly
Unknown
Mean motion
4.08971 °/min
Orbital period
88.03 mins
BSTAR
0.003273
Loading maneuver chart data...
Loading SW <> Apogee altitude chart data...

STARLINK-1415 Visibility

Observer location: undefined°, undefined°

This satellite is decayed
Span
Click to sort rows by Start time (UTC) header in descending order
Start Az.
Max El. time (UTC)
Max El. Az.
Max El.
End time (UTC)
End Az.
|